Time,TemperatureF,DewpointF,PressureIn,WindDirection,WindDirectionDegrees,WindSpeedMPH,WindSpeedGustMPH,Humidity,HourlyPrecipIn,Conditions,Clouds,dailyrainin,SoftwareType,DateUTC
2013-01-03 00:22:00,18.0,7.0,-100.00,West,271,2.0,4.0,62,-99.99,,,-99.99,,2013-01-03 00:22:00,
2013-01-03 00:37:00,18.0,7.0,-100.00,West,271,2.0,4.0,62,-99.99,,,-99.99,,2013-01-03 00:37:00,
2013-01-03 01:22:00,7.0,3.0,-100.00,NW,319,2.0,4.0,82,-99.99,,,0.00,,2013-01-03 01:22:00,
2013-01-03 01:32:00,7.0,3.0,-100.00,NW,319,2.0,4.0,82,-99.99,,,0.00,,2013-01-03 01:32:00,
2013-01-03 01:42:00,7.0,3.0,-100.00,NW,319,2.0,4.0,82,-99.99,,,0.00,,2013-01-03 01:42:00,
2013-01-03 01:52:00,7.0,3.0,-100.00,NW,319,2.0,4.0,82,-99.99,,,0.00,,2013-01-03 01:52:00,
2013-01-03 02:12:00,0.0,-3.0,-100.00,NW,308,2.0,2.0,87,0.00,,,0.00,,2013-01-03 02:12:00,
2013-01-03 02:22:00,0.0,-3.0,-100.00,NW,308,2.0,2.0,87,0.00,,,0.00,,2013-01-03 02:22:00,
2013-01-03 02:33:00,0.0,-3.0,-100.00,NW,308,2.0,2.0,87,0.00,,,0.00,,2013-01-03 02:33:00,
2013-01-03 02:42:00,0.0,-3.0,-100.00,NW,308,2.0,2.0,87,0.00,,,0.00,,2013-01-03 02:42:00,
2013-01-03 02:52:00,0.0,-3.0,-100.00,NW,308,2.0,2.0,87,0.00,,,0.00,,2013-01-03 02:52:00,
2013-01-03 03:12:00,-4.0,-8.0,-100.00,NW,326,1.0,1.0,85,0.00,,,0.00,,2013-01-03 03:12:00,
2013-01-03 03:22:00,-4.0,-8.0,-100.00,NW,326,1.0,1.0,85,0.00,,,0.00,,2013-01-03 03:22:00,
2013-01-03 03:46:00,-4.0,-8.0,-100.00,NW,326,1.0,1.0,85,0.00,,,0.00,,2013-01-03 03:46:00,
2013-01-03 03:52:00,-4.0,-8.0,-100.00,NW,326,1.0,1.0,85,0.00,,,0.00,,2013-01-03 03:52:00,
2013-01-03 04:12:00,-9.0,-13.0,-100.00,NNE,16,1.0,1.0,83,0.00,,,-99.99,,2013-01-03 04:12:00,
2013-01-03 04:22:00,-9.0,-13.0,-100.00,NNE,16,1.0,1.0,83,0.00,,,-99.99,,2013-01-03 04:22:00,
2013-01-03 04:32:00,-9.0,-13.0,-100.00,NNE,16,1.0,1.0,83,0.00,,,-99.99,,2013-01-03 04:32:00,
2013-01-03 04:42:00,-9.0,-13.0,-100.00,NNE,16,1.0,1.0,83,0.00,,,-99.99,,2013-01-03 04:42:00,
2013-01-03 04:52:00,-9.0,-13.0,-100.00,NNE,16,1.0,1.0,83,0.00,,,-99.99,,2013-01-03 04:52:00,
2013-01-03 05:22:00,-10.0,-14.0,-100.00,NW,305,2.0,4.0,83,0.00,,,0.00,,2013-01-03 05:22:00,
2013-01-03 05:33:00,-10.0,-14.0,-100.00,NW,305,2.0,4.0,83,0.00,,,0.00,,2013-01-03 05:33:00,
2013-01-03 05:42:00,-10.0,-14.0,-100.00,NW,305,2.0,4.0,83,0.00,,,0.00,,2013-01-03 05:42:00,
2013-01-03 05:52:00,-10.0,-14.0,-100.00,NW,305,2.0,4.0,83,0.00,,,0.00,,2013-01-03 05:52:00,
2013-01-03 06:22:00,-11.0,-16.0,-100.00,North,354,1.0,2.0,80,0.00,,,0.00,,2013-01-03 06:22:00,
2013-01-03 06:32:00,-11.0,-16.0,-100.00,North,354,1.0,2.0,80,0.00,,,0.00,,2013-01-03 06:32:00,
2013-01-03 06:42:00,-11.0,-16.0,-100.00,North,354,1.0,2.0,80,0.00,,,0.00,,2013-01-03 06:42:00,
2013-01-03 06:52:00,-11.0,-16.0,-100.00,North,354,1.0,2.0,80,0.00,,,0.00,,2013-01-03 06:52:00,
2013-01-03 07:22:00,-14.0,-18.0,-100.00,North,351,1.0,1.0,80,0.00,,,0.00,,2013-01-03 07:22:00,
2013-01-03 07:32:00,-14.0,-18.0,-100.00,North,351,1.0,1.0,80,0.00,,,0.00,,2013-01-03 07:32:00,
2013-01-03 07:42:00,-14.0,-18.0,-100.00,North,351,1.0,1.0,80,0.00,,,0.00,,2013-01-03 07:42:00,
2013-01-03 07:52:00,-14.0,-18.0,-100.00,North,351,1.0,1.0,80,0.00,,,0.00,,2013-01-03 07:52:00,
2013-01-03 08:22:00,-17.0,-22.0,-100.00,North,4,2.0,4.0,79,0.00,,,0.00,,2013-01-03 08:22:00,
2013-01-03 08:32:00,-17.0,-22.0,-100.00,North,4,2.0,4.0,79,0.00,,,0.00,,2013-01-03 08:32:00,
2013-01-03 08:42:00,-17.0,-22.0,-100.00,North,4,2.0,4.0,79,0.00,,,0.00,,2013-01-03 08:42:00,
2013-01-03 08:52:00,-17.0,-22.0,-100.00,North,4,2.0,4.0,79,0.00,,,0.00,,2013-01-03 08:52:00,
2013-01-03 09:12:00,-16.0,-21.0,-100.00,NNE,28,1.0,1.0,78,0.00,,,0.00,,2013-01-03 09:12:00,
2013-01-03 09:22:00,-16.0,-21.0,-100.00,NNE,28,1.0,1.0,78,0.00,,,0.00,,2013-01-03 09:22:00,
2013-01-03 09:33:00,-16.0,-21.0,-100.00,NNE,28,1.0,1.0,78,0.00,,,0.00,,2013-01-03 09:33:00,
2013-01-03 09:42:00,-16.0,-21.0,-100.00,NNE,28,1.0,1.0,78,0.00,,,0.00,,2013-01-03 09:42:00,
2013-01-03 09:52:00,-16.0,-21.0,-100.00,NNE,28,1.0,1.0,78,0.00,,,0.00,,2013-01-03 09:52:00,
2013-01-03 10:22:00,-16.0,-21.0,-100.00,NW,314,4.0,5.0,79,-99.99,,,-99.99,,2013-01-03 10:22:00,
2013-01-03 10:32:00,-16.0,-21.0,-100.00,NW,314,4.0,5.0,79,-99.99,,,-99.99,,2013-01-03 10:32:00,
2013-01-03 10:42:00,-16.0,-21.0,-100.00,NW,314,4.0,5.0,79,-99.99,,,-99.99,,2013-01-03 10:42:00,
2013-01-03 10:52:00,-16.0,-21.0,-100.00,NW,314,4.0,5.0,79,-99.99,,,-99.99,,2013-01-03 10:52:00,
2013-01-03 11:12:00,-17.0,-22.0,-100.00,NW,312,2.0,5.0,77,0.00,,,0.00,,2013-01-03 11:12:00,
2013-01-03 11:22:00,-17.0,-22.0,-100.00,NW,312,2.0,5.0,77,0.00,,,0.00,,2013-01-03 11:22:00,
2013-01-03 11:33:00,-17.0,-22.0,-100.00,NW,312,2.0,5.0,77,0.00,,,0.00,,2013-01-03 11:33:00,
2013-01-03 11:42:00,-17.0,-22.0,-100.00,NW,312,2.0,5.0,77,0.00,,,0.00,,2013-01-03 11:42:00,
2013-01-03 11:52:00,-17.0,-22.0,-100.00,NW,312,2.0,5.0,77,0.00,,,0.00,,2013-01-03 11:52:00,
2013-01-03 12:12:00,-14.0,-19.0,-100.00,NW,315,2.0,5.0,79,0.00,,,0.00,,2013-01-03 12:12:00,
2013-01-03 12:22:00,-14.0,-19.0,-100.00,NW,315,2.0,5.0,79,0.00,,,0.00,,2013-01-03 12:22:00,
2013-01-03 12:32:00,-14.0,-19.0,-100.00,NW,315,2.0,5.0,79,0.00,,,0.00,,2013-01-03 12:32:00,
2013-01-03 12:42:00,-14.0,-19.0,-100.00,NW,315,2.0,5.0,79,0.00,,,0.00,,2013-01-03 12:42:00,
2013-01-03 12:52:00,-14.0,-19.0,-100.00,NW,315,2.0,5.0,79,0.00,,,0.00,,2013-01-03 12:52:00,
2013-01-03 13:22:00,-16.0,-20.0,-100.00,WNW,303,4.0,6.0,78,0.00,,,0.00,,2013-01-03 13:22:00,
2013-01-03 13:32:00,-16.0,-20.0,-100.00,WNW,303,4.0,6.0,78,0.00,,,0.00,,2013-01-03 13:32:00,
2013-01-03 13:42:00,-16.0,-20.0,-100.00,WNW,303,4.0,6.0,78,0.00,,,0.00,,2013-01-03 13:42:00,
2013-01-03 13:52:00,-16.0,-20.0,-100.00,WNW,303,4.0,6.0,78,0.00,,,0.00,,2013-01-03 13:52:00,
2013-01-03 14:12:00,-16.0,-20.0,-100.00,WNW,300,4.0,6.0,78,0.00,,,0.00,,2013-01-03 14:12:00,
2013-01-03 14:42:00,-16.0,-20.0,-100.00,WNW,300,4.0,6.0,78,0.00,,,0.00,,2013-01-03 14:42:00,
2013-01-03 14:53:00,-16.0,-20.0,-100.00,WNW,300,4.0,6.0,78,0.00,,,0.00,,2013-01-03 14:53:00,
2013-01-03 15:12:00,-15.0,-20.0,-100.00,NW,321,4.0,5.0,78,0.00,,,0.00,,2013-01-03 15:12:00,
2013-01-03 15:22:00,-15.0,-20.0,-100.00,NW,321,4.0,5.0,78,0.00,,,0.00,,2013-01-03 15:22:00,
2013-01-03 15:33:00,-15.0,-20.0,-100.00,NW,321,4.0,5.0,78,0.00,,,0.00,,2013-01-03 15:33:00,
2013-01-03 15:42:00,-15.0,-20.0,-100.00,NW,321,4.0,5.0,78,0.00,,,0.00,,2013-01-03 15:42:00,
2013-01-03 15:52:00,-15.0,-20.0,-100.00,NW,321,4.0,5.0,78,0.00,,,0.00,,2013-01-03 15:52:00,
2013-01-03 16:12:00,-17.0,-22.0,-100.00,North,355,1.0,1.0,77,0.00,,,-99.99,,2013-01-03 16:12:00,
2013-01-03 17:12:00,-13.0,-18.0,-100.00,North,352,1.0,2.0,79,-99.99,,,0.00,,2013-01-03 17:12:00,
2013-01-03 18:13:00,2.0,-3.0,-100.00,NW,313,2.0,5.0,79,-99.99,,,-99.99,,2013-01-03 18:13:00,
2013-01-03 18:22:00,2.0,-3.0,-100.00,NW,313,2.0,5.0,79,-99.99,,,-99.99,,2013-01-03 18:22:00,
2013-01-03 18:33:00,2.0,-3.0,-100.00,NW,313,2.0,5.0,79,-99.99,,,-99.99,,2013-01-03 18:33:00,
2013-01-03 18:54:00,17.0,10.0,-100.00,NW,309,1.0,1.0,74,0.00,,,0.00,,2013-01-03 18:54:00,
2013-01-03 20:22:00,32.0,9.0,-100.00,NNW,345,1.0,2.0,37,0.00,,,0.00,,2013-01-03 20:22:00,
2013-01-03 21:12:00,36.0,10.0,-100.00,North,351,1.0,1.0,33,-99.99,,,0.00,,2013-01-03 21:12:00,
2013-01-03 21:22:00,36.0,10.0,-100.00,North,351,1.0,1.0,33,-99.99,,,0.00,,2013-01-03 21:22:00,
2013-01-03 22:22:00,32.0,9.0,-100.00,SSW,195,4.0,6.0,37,-99.99,,,0.00,,2013-01-03 22:22:00,
2013-01-03 23:22:00,29.0,13.0,-100.00,SSW,199,5.0,8.0,49,-99.99,,,0.00,,2013-01-03 23:22:00,